[[{"header":{"parameterUnit":"m.s-1","parameterCategory":1,"la1":30.2991,"la2":30.254,"lo1":-89.0895,"lo2":-89.0444,"dy":0.0017,"dx":0.0017,"nx":28,"ny":28,"refTime":"2024-12-11T03:00:00:Z","depth":0,"parameterNumber":2,"parameterNumberName":"U-component_of_WINDS"},"data":[0,0,0,0,0,0,0,0,0,0,0,0,0,0,0,0,0,0,0,0,0,0,0,0,0,0,0,0,0,0,0,0,0,0,0,0,0,0,0,0,0,0,0,0,0,0,0,0,0,0,0,0,0,0,0,0,0,0,3.6231,3.6232,0,3.6303,3.6304,3.6304,3.6292,3.629,3.6289,3.6288,3.6361,3.6364,3.6367,0,0,0,0,0,0,0,0,0,0,0,0,0,3.6084,3.6086,3.6231,3.6232,3.6233,3.6303,3.6304,3.6305,3.6292,3.629,3.6289,3.6287,3.636,3.6364,3.6368,0,0,0,0,0,0,0,0,0,0,0,0,0,3.6151,3.6087,3.6231,3.6235,3.6236,3.6302,3.6304,3.6305,3.6292,3.629,3.6288,3.6287,3.6359,3.6364,3.6368,3.6435,0,0,3.6383,3.6385,0,0,0,0,0,0,0,0,3.6147,3.6156,3.6233,3.6234,3.6236,3.6286,3.6279,3.6349,3.6293,3.6271,3.6288,3.6286,3.6338,3.6344,3.6362,3.6439,3.6442,3.6383,3.6386,3.6388,3.6389,0,0,0,0,0,0,0,3.6142,3.6153,3.6259,3.6234,3.6236,3.6233,3.6241,3.6292,3.6314,3.6273,3.6272,3.628,3.6338,3.6357,3.6363,3.6443,3.6383,3.6387,3.639,3.6392,3.6581,3.6583,0,0,0,0,0,0,3.6136,3.6149,3.6257,3.6261,3.6186,3.6238,3.6246,3.6272,3.6313,3.6318,3.6282,3.628,3.635,3.6358,3.6366,3.6449,3.6388,3.6392,3.6395,3.6579,3.6582,3.6584,0,0,0,0,0,0,3.6133,3.6146,3.6254,3.6205,3.6219,3.6242,3.6272,3.6274,3.6293,3.6321,3.6325,3.6297,3.6349,3.6359,3.6419,3.6451,3.6394,3.6399,3.6576,3.658,3.6583,3.6614,0,0,0,0,0,0,3.6129,3.6145,3.617,3.6206,3.6221,3.6305,3.6274,3.6277,3.6302,3.6299,3.6336,3.634,3.6348,3.6412,3.6423,3.6456,3.6402,3.6573,3.6578,3.6582,3.661,3.6618,3.6624,0,0,0,0,0,3.6124,3.6175,3.6171,3.6185,3.6253,3.6307,3.6316,3.6324,3.6304,3.633,3.6348,3.6339,3.6446,3.6418,3.6431,3.6466,3.6571,3.6577,3.6581,3.6607,3.6616,3.6624,0,0,0,0,0,0,3.6142,3.618,3.6176,3.6241,3.6271,3.6305,3.6337,3.6334,3.637,3.6366,3.6374,3.6383,3.6444,3.6461,3.6429,3.6534,3.6506,3.6514,3.6521,3.653,3.6537,3.6532,3.6406,0,0,0,0,0,3.6154,3.6194,3.6225,3.6279,3.6295,3.6314,3.6337,3.6341,3.6373,3.6385,3.6407,3.6438,3.6479,3.6505,3.6544,3.6613,3.6621,3.6643,3.665,3.6656,3.6663,3.6702,3.6713,3.66,3.66,3.66,0,0,3.6178,3.6204,3.6229,3.6284,3.6307,3.635,3.6324,3.6369,3.6401,3.6392,3.645,3.6467,3.6503,3.6568,3.6597,3.6584,3.6696,3.6663,3.6667,3.6671,3.6709,3.6719,3.6729,3.6604,3.6603,3.6602,0,0,3.6244,3.6267,3.6316,3.6341,3.6377,3.639,3.6402,3.6437,3.6449,3.6507,3.6502,3.654,3.6609,3.6635,3.6657,3.6736,3.673,3.6749,3.6786,3.6824,3.6833,3.6841,3.687,3.6881,3.6755,3.6755,3.6755,0,3.627,3.6333,3.6341,3.6388,3.6413,3.6408,3.6457,3.6481,3.6529,3.6546,3.6531,3.6619,3.6642,3.6714,3.6734,3.6751,3.6766,3.6744,3.6831,3.6839,3.6847,3.6875,3.6886,3.6757,3.6757,3.6757,3.6757,0,3.6363,3.6407,3.6442,3.6489,3.6518,3.6566,3.6582,3.6611,3.6613,3.6628,3.6688,3.6716,3.6762,3.6779,3.6781,3.6852,3.6843,3.6829,3.6801,3.686,3.6886,3.6897,3.676,3.6759,3.6759,3.6758,0,0,3.6441,3.6494,3.6507,3.6529,3.657,3.6604,3.6653,3.6698,3.6723,3.6756,3.6798,3.6858,3.6847,3.6872,3.6877,3.6911,3.6973,3.6894,3.6895,3.6908,3.7055,3.7065,3.7077,3.697,3.6972,3.6973,3.7052,0,3.6512,3.6597,3.6607,3.6684,3.6725,3.6722,3.6765,3.6795,3.6811,3.6849,3.6866,3.6909,3.689,3.6906,3.6939,3.6959,3.7003,3.6953,3.7009,3.7011,3.7,3.7091,3.7101,3.7174,3.7063,3.7064,3.7066,0,3.6605,3.6642,3.6723,3.6761,3.6779,3.6816,3.686,3.6896,3.6931,3.694,3.697,3.6971,3.7023,3.6993,3.7064,3.703,3.7054,3.7067,3.707,3.7076,3.7042,3.7099,3.7197,3.7209,3.7082,3.708,3.7079,0,3.6655,3.6726,3.6784,3.6802,3.6847,3.6875,3.6895,3.6928,3.6955,3.6993,3.7011,3.7054,3.7078,3.7112,3.7125,3.7102,3.7197,3.7167,3.7206,3.7206,3.7226,3.7225,3.733,3.7241,3.7241,3.724,3.724,0,3.6733,3.6783,3.6807,3.6843,3.6899,3.6911,3.6966,3.6985,3.7015,3.7055,3.7055,3.7093,3.7108,3.7149,3.716,3.7218,3.7229,3.7238,3.7241,3.7239,3.7238,3.7254,3.725,3.7243,3.7243,3.7242,3.7242,0,3.6798,3.6816,3.688,3.6918,3.6929,3.6969,3.7001,3.7037,3.7052,3.7103,3.7116,3.7141,3.7189,3.7206,3.7264,3.7271,3.734,3.7337,3.7328,3.7328,3.7367,3.7363,3.7487,3.7504,3.7403,3.7404,3.7405,0,3.6847,3.6885,3.6928,3.6955,3.6977,3.702,3.7048,3.7062,3.7091,3.7135,3.7166,3.7213,3.7252,3.7329,3.7353,3.7398,3.7397,3.7437,3.7404,3.7401,3.7399,3.7396,3.7401,3.7443,3.7444,3.7445,3.7446,0,3.6932,3.694,3.698,3.7024,3.7058,3.7094,3.7128,3.715,3.7169,3.7203,3.7252,3.7282,3.7342,3.739,3.7437,3.7458,3.7456,3.7457,3.7468,3.7466,3.746,3.7465,3.7345,3.7453,3.7453,3.7452,3.7452,3.7451,3.6991,3.7026,3.7062,3.7108,3.7135,3.7168,3.7203,3.7224,3.7266,3.7316,3.7322,3.7375,3.7412,3.7474,3.7497,3.754,3.7529,3.7545,3.755,3.7554,3.7557,3.7453,3.7548,3.7548,3.7548,3.7548,3.7548,0,3.7077,3.71,3.7142,3.7191,3.7227,3.7223,3.7261,3.7292,3.7339,3.7373,3.7412,3.747,3.7517,3.7545,3.7593,3.7621,3.7622,3.7633,3.7632,3.7637,3.7564,3.7549,3.7632,3.7632,3.7632,3.7632,3.7632,3.7632,3.7125,3.7185,3.7197,3.727,3.7294,3.7346,3.7369,3.74,3.7427,3.7492,3.7531,3.7549,3.7582,3.7632,3.7675,3.7682,3.77,3.7713,3.772,3.765,3.7642,3.7633,3.762,3.7717,3.7717,3.7789,3.779,3.7791]},{"header":{"parameterUnit":"m.s-1","parameterCategory":1,"la1":30.2991,"la2":30.254,"lo1":-89.0895,"lo2":-89.0444,"dy":0.0017,"dx":0.0017,"nx":28,"ny":28,"refTime":"2024-12-11T03:00:00:Z","depth":0,"parameterNumber":3,"parameterNumberName":"V-component_of_WINDS"},"data":[0,0,0,0,0,0,0,0,0,0,0,0,0,0,0,0,0,0,0,0,0,0,0,0,0,0,0,0,0,0,0,0,0,0,0,0,0,0,0,0,0,0,0,0,0,0,0,0,0,0,0,0,0,0,0,0,0,0,-6.2629,-6.263,0,-6.2761,-6.2763,-6.2764,-6.2752,-6.275,-6.2748,-6.2747,-6.2879,-6.2885,-6.289,0,0,0,0,0,0,0,0,0,0,0,0,0,-6.2365,-6.237,-6.2629,-6.2631,-6.2632,-6.2761,-6.2763,-6.2765,-6.2753,-6.275,-6.2748,-6.2746,-6.2878,-6.2884,-6.289,0,0,0,0,0,0,0,0,0,0,0,0,0,-6.2487,-6.2371,-6.2629,-6.2642,-6.2644,-6.2761,-6.2763,-6.2765,-6.2753,-6.275,-6.2747,-6.2744,-6.2875,-6.2883,-6.2891,-6.3002,0,0,-6.2916,-6.292,0,0,0,0,0,0,0,0,-6.248,-6.2496,-6.2638,-6.2641,-6.2644,-6.2737,-6.2719,-6.2845,-6.2754,-6.2712,-6.2746,-6.2743,-6.2834,-6.2846,-6.2877,-6.3009,-6.3014,-6.2917,-6.2922,-6.2925,-6.2928,0,0,0,0,0,0,0,-6.2471,-6.249,-6.2681,-6.264,-6.2644,-6.2641,-6.2655,-6.2742,-6.2788,-6.2715,-6.2715,-6.2731,-6.2835,-6.2869,-6.288,-6.3016,-6.2917,-6.2924,-6.2929,-6.2932,-6.3248,-6.3251,0,0,0,0,0,0,-6.246,-6.2483,-6.2677,-6.2685,-6.2553,-6.2648,-6.2664,-6.271,-6.2787,-6.2796,-6.2733,-6.273,-6.2857,-6.2871,-6.2885,-6.3022,-6.2925,-6.2933,-6.2938,-6.3245,-6.3249,-6.3253,0,0,0,0,0,0,-6.2454,-6.2477,-6.2672,-6.2584,-6.2609,-6.2656,-6.2709,-6.2715,-6.2749,-6.2801,-6.2809,-6.276,-6.2855,-6.2873,-6.2974,-6.3026,-6.2937,-6.2944,-6.324,-6.3246,-6.3251,-6.3295,0,0,0,0,0,0,-6.2447,-6.2475,-6.2518,-6.2585,-6.2614,-6.2759,-6.2712,-6.2719,-6.2763,-6.276,-6.2828,-6.2836,-6.2854,-6.2962,-6.2982,-6.3036,-6.295,-6.3236,-6.3243,-6.3249,-6.3289,-6.3301,-6.3312,0,0,0,0,0,-6.2437,-6.2524,-6.252,-6.2544,-6.2668,-6.2762,-6.2778,-6.2798,-6.2767,-6.2811,-6.2845,-6.2834,-6.3017,-6.2972,-6.2995,-6.3052,-6.3233,-6.3241,-6.3249,-6.3284,-6.3299,-6.3311,0,0,0,0,0,0,-6.246,-6.2533,-6.253,-6.2641,-6.2696,-6.276,-6.2815,-6.2812,-6.2876,-6.287,-6.2891,-6.2906,-6.3008,-6.304,-6.2989,-6.3164,-6.3121,-6.3134,-6.314,-6.3155,-6.3166,-6.3156,-6.2957,0,0,0,0,0,-6.2478,-6.2549,-6.2609,-6.2701,-6.2729,-6.2767,-6.2809,-6.282,-6.2877,-6.29,-6.2941,-6.2996,-6.3067,-6.3112,-6.3179,-6.3294,-6.3309,-6.3344,-6.3355,-6.3364,-6.3375,-6.344,-6.3457,-6.3279,-6.3279,-6.3278,0,0,-6.2516,-6.2564,-6.2607,-6.2707,-6.275,-6.2824,-6.2787,-6.2865,-6.2919,-6.2911,-6.301,-6.3042,-6.3105,-6.3214,-6.3264,-6.3243,-6.3428,-6.3374,-6.3381,-6.3387,-6.345,-6.3467,-6.3482,-6.3284,-6.3283,-6.3282,0,0,-6.2622,-6.2665,-6.2748,-6.2794,-6.2861,-6.2887,-6.2907,-6.2972,-6.2994,-6.3094,-6.309,-6.3154,-6.3274,-6.332,-6.3359,-6.3486,-6.3479,-6.3508,-6.3566,-6.3629,-6.3643,-6.3656,-6.3703,-6.3719,-6.3518,-6.3518,-6.3518,0,-6.266,-6.2771,-6.2791,-6.2871,-6.2916,-6.2913,-6.2998,-6.304,-6.3126,-6.3156,-6.3132,-6.3285,-6.3327,-6.3448,-6.3479,-6.351,-6.3534,-6.35,-6.364,-6.3653,-6.3665,-6.371,-6.3727,-6.3521,-6.3521,-6.3521,-6.352,0,-6.2815,-6.2892,-6.2951,-6.3036,-6.3086,-6.3168,-6.3201,-6.325,-6.3257,-6.3285,-6.3388,-6.3439,-6.3517,-6.3547,-6.3553,-6.3669,-6.3655,-6.3635,-6.3592,-6.3684,-6.3727,-6.3744,-6.3526,-6.3525,-6.3524,-6.3523,0,0,-6.2938,-6.3035,-6.3057,-6.3096,-6.3171,-6.3231,-6.3313,-6.3392,-6.3434,-6.3494,-6.3564,-6.3667,-6.365,-6.3695,-6.3706,-6.3762,-6.3862,-6.3736,-6.3738,-6.3759,-6.3995,-6.401,-6.4029,-6.3857,-6.3861,-6.3863,-6.399,0,-6.3053,-6.32,-6.3222,-6.3351,-6.3423,-6.3423,-6.3495,-6.3549,-6.3578,-6.3644,-6.3675,-6.3749,-6.372,-6.3748,-6.3802,-6.3838,-6.3909,-6.3829,-6.3923,-6.3926,-6.3909,-6.4051,-6.4067,-6.4184,-6.4006,-6.4009,-6.4011,0,-6.3207,-6.3273,-6.341,-6.3478,-6.3509,-6.3573,-6.3648,-6.3711,-6.3772,-6.379,-6.3841,-6.3847,-6.3933,-6.3886,-6.4005,-6.395,-6.399,-6.4013,-6.4018,-6.4028,-6.3975,-6.4066,-6.4221,-6.4239,-6.4037,-6.4035,-6.4033,0,-6.3285,-6.3408,-6.3506,-6.354,-6.3621,-6.3667,-6.3703,-6.3762,-6.3808,-6.3874,-6.3904,-6.3978,-6.4019,-6.4076,-6.4102,-6.4065,-6.422,-6.4175,-6.4238,-6.4237,-6.4271,-6.4268,-6.4435,-6.4295,-6.4294,-6.4294,-6.4294,0,-6.3412,-6.3496,-6.3543,-6.3604,-6.3699,-6.3723,-6.3816,-6.3851,-6.3904,-6.3971,-6.3975,-6.4038,-6.4068,-6.4136,-6.4157,-6.4254,-6.4271,-6.4288,-6.4293,-6.4289,-6.4287,-6.4316,-6.4309,-6.4299,-6.4298,-6.4297,-6.4296,0,-6.3515,-6.355,-6.3658,-6.3727,-6.3746,-6.3813,-6.3872,-6.3931,-6.3961,-6.4046,-6.4068,-6.4114,-6.4194,-6.4226,-6.4324,-6.4338,-6.445,-6.4447,-6.443,-6.4431,-6.4493,-6.4487,-6.4685,-6.4713,-6.4553,-6.4554,-6.4555,0,-6.3594,-6.3659,-6.3736,-6.3783,-6.382,-6.3894,-6.3943,-6.397,-6.402,-6.4097,-6.4148,-6.4229,-6.4295,-6.4424,-6.4465,-6.4541,-6.4541,-6.4605,-6.4552,-6.4547,-6.4544,-6.454,-6.4548,-6.4615,-6.4617,-6.4618,-6.4619,0,-6.3731,-6.3746,-6.3816,-6.3893,-6.3951,-6.4013,-6.4073,-6.411,-6.4147,-6.4203,-6.4287,-6.4338,-6.444,-6.452,-6.4599,-6.4635,-6.4634,-6.4636,-6.4654,-6.4651,-6.4639,-6.4648,-6.4458,-6.4631,-6.463,-6.4629,-6.4628,-6.4628,-6.3826,-6.3885,-6.3949,-6.4028,-6.4076,-6.4133,-6.4193,-6.4231,-6.4301,-6.4387,-6.4398,-6.4488,-6.455,-6.4656,-6.4696,-6.4767,-6.475,-6.4777,-6.4784,-6.479,-6.4795,-6.4627,-6.4781,-6.478,-6.478,-6.478,-6.478,0,-6.3965,-6.4007,-6.4079,-6.4164,-6.4226,-6.4221,-6.4288,-6.434,-6.442,-6.4478,-6.4544,-6.4641,-6.472,-6.4769,-6.4849,-6.4896,-6.4897,-6.4916,-6.4913,-6.4922,-6.4805,-6.4782,-6.4914,-6.4914,-6.4914,-6.4913,-6.4913,-6.4913,-6.4044,-6.4145,-6.4167,-6.4292,-6.4334,-6.4423,-6.4462,-6.4514,-6.4562,-6.467,-6.4737,-6.4769,-6.4824,-6.4908,-6.498,-6.4993,-6.5022,-6.5043,-6.5054,-6.4944,-6.493,-6.4917,-6.4895,-6.5049,-6.5049,-6.5165,-6.5166,-6.5167]}]]